Camarillo, CA

6:44 PM PST on January 21, 2017 (GMT -0800)
Camarillo

Weather History for KCMA - October, 2011

Change the Weather History Date:

Monday, October 31, 2011

  Actual Average Record
Temperature  
Mean Temperature 62 °F 61 °F  
Max Temperature 75 °F 72 °F 95 °F (1949)
Min Temperature 48 °F 51 °F 35 °F (1961)
Degree Days  
Heating Degree Days 3 5  
Month to date heating degree days 32 92  
Since 1 July heating degree days 38 123  
Cooling Degree Days 0 1  
Month to date cooling degree days 57 33  
Year to date cooling degree days 477 316  
Growing Degree Days 10 (Base 50)    
Moisture  
Dew Point 51 °F    
Average Humidity 71    
Maximum Humidity 93    
Minimum Humidity 49    
Precipitation  
Precipitation 0.00 in 0.04 in 0.71 in (2014)
Month to date precipitation 0.94 0.63  
Year to date precipitation 11.21 11.85  
Since 1 July precipitation 0.98  
Sea Level Pressure  
Sea Level Pressure 29.97 in    
Wind  
Wind Speed 3 mph (West)    
Max Wind Speed 10 mph    
Max Gust Speed 13 mph    
Visibility 6 miles    
Events Fog    
T = Trace of Precipitation, MM = Missing Value Source: NWS Daily Summary

Daily Weather History Graph

Daily Weather History Graph

Search for Another Location

Airport or City:

Trip Planner

Search our weather history database for the weather conditions in past years. The results will help you decide how hot, cold, wet, or windy it might be!

Date:

Astronomy

Oct. 31, 2011 Rise Set
Actual Time 7:15 AM PDT 6:04 PM PDT
Civil Twilight 6:49 AM PDT 6:30 PM PDT
Nautical Twilight 6:19 AM PDT 6:59 PM PDT
Astronomical Twilight 5:50 AM PDT 7:29 PM PDT
Moon 12:20 PM PDT (10/31) 10:50 PM PDT (10/31)
Length of Visible Light 11h 40m
Length of Day
10h 49m
Waxing Crescent, 31% of the Moon is Illuminated
Oct 31
Waxing Crescent
Nov 2
First Quarter
Nov 10
Full
Nov 18
Last Quarter
Nov 24
New

Hourly Weather History & Observations

Time (PDT) Temp. Dew Point Humidity Pressure Visibility Wind Dir Wind Speed Gust Speed Precip Events Conditions
12:55 AM 55.0 °F 43.0 °F 64% 30.04 in 10.0 mi ENE 4.6 mph - N/A   Clear
1:55 AM 54.0 °F 41.0 °F 62% 30.03 in 10.0 mi Calm Calm - N/A   Clear
2:55 AM 51.1 °F 42.1 °F 71% 30.02 in 10.0 mi Calm Calm - N/A   Clear
3:55 AM 51.1 °F 42.1 °F 71% 30.01 in 10.0 mi Calm Calm - N/A   Clear
4:55 AM 50.0 °F 39.9 °F 68% 30.01 in 10.0 mi NE 5.8 mph - N/A   Clear
5:55 AM 50.0 °F 43.0 °F 77% 30.01 in 10.0 mi Calm Calm - N/A   Clear
6:55 AM 50.0 °F 41.0 °F 71% 30.01 in 10.0 mi Calm Calm - N/A   Clear
7:55 AM 48.9 °F 42.1 °F 77% 30.02 in 10.0 mi Calm Calm - N/A   Clear
8:55 AM 55.9 °F 43.0 °F 62% 30.03 in 10.0 mi Calm Calm - N/A   Clear
9:55 AM 62.1 °F 45.0 °F 53% 30.04 in 10.0 mi SW 3.5 mph - N/A   Clear
10:55 AM 68.0 °F 50.0 °F 52% 30.03 in 10.0 mi SSW 3.5 mph - N/A   Clear
11:55 AM 70.0 °F 53.1 °F 55% 30.01 in 10.0 mi SW 3.5 mph - N/A   Clear
12:55 PM 72.0 °F 54.0 °F 53% 29.98 in 10.0 mi WSW 3.5 mph - N/A   Clear
1:55 PM 73.0 °F 53.1 °F 49% 29.97 in 10.0 mi WSW 8.1 mph - N/A   Clear
3:55 PM 69.1 °F 54.0 °F 58% 29.95 in 10.0 mi WSW 5.8 mph - N/A   Clear
4:55 PM 66.0 °F 55.0 °F 68% 29.95 in 10.0 mi West 6.9 mph - N/A   Clear
5:55 PM 61.0 °F 54.0 °F 78% 29.95 in 9.0 mi West 5.8 mph - N/A   Clear
6:31 PM 59.0 °F 53.6 °F 82% 29.93 in 6.0 mi WNW 5.8 mph - N/A   Haze
6:55 PM 57.9 °F 53.1 °F 84% 29.96 in 5.0 mi WNW 5.8 mph - N/A   Haze
7:02 PM 59.0 °F 53.6 °F 82% 29.93 in 5.0 mi WNW 3.5 mph - N/A   Haze
7:40 PM 57.2 °F 55.4 °F 94% 29.93 in 2.5 mi Calm Calm - N/A   Overcast
7:55 PM 57.9 °F 55.0 °F 90% 29.96 in 3.0 mi WNW 3.5 mph - N/A   Overcast
8:17 PM 57.2 °F 55.4 °F 94% 29.94 in 2.5 mi North 3.5 mph - N/A   Overcast
8:28 PM 59.0 °F 55.4 °F 88% 29.93 in 3.0 mi Calm Calm - N/A   Overcast
8:46 PM 57.2 °F 55.4 °F 94% 29.94 in 2.0 mi West 3.5 mph - N/A   Overcast
8:48 PM 57.2 °F 55.4 °F 94% 29.94 in 1.5 mi West 3.5 mph - N/A   Overcast
8:55 PM 57.9 °F 55.0 °F 90% 29.97 in 1.0 mi Calm Calm - N/A   Overcast
9:08 PM 57.2 °F 55.4 °F 94% 29.94 in 2.0 mi Calm Calm - N/A   Overcast
9:45 PM 59.0 °F 53.6 °F 82% 29.94 in 1.5 mi Calm Calm - N/A   Haze
9:55 PM 57.9 °F 55.0 °F 90% 29.96 in 1.2 mi Calm Calm - N/A   Overcast
10:10 PM 57.2 °F 55.4 °F 94% 29.94 in 2.0 mi Calm Calm - N/A   Overcast
10:18 PM 57.2 °F 53.6 °F 88% 29.94 in 1.5 mi Calm Calm - N/A   Overcast
10:50 PM 57.2 °F 55.4 °F 94% 29.94 in 0.8 mi Calm Calm - N/A   Mist
10:55 PM 57.9 °F 54.0 °F 87% 29.97 in 0.5 mi ESE 3.5 mph - N/A Fog Fog
11:55 PM 57.0 °F 54.0 °F 89% 29.96 in 0.5 mi Calm Calm - N/A Fog Fog